#timestamp,LO_Frequency,Hit,StdDev 
1513620015.8,286047002.7,P
1513620035.6,286047003.5,N
1513620055.5,286047007.4,Y
1513620075.3,286046999.9,P
1513620095.2,286046998.8,N
1513620115.9,286046998.5,N
1513620135.7,286046998.1,N
1513620155.6,286046999.6,N
1513620175.4,286046997.9,N
1513620195.3,286046996.2,N
1513620215.1,286046994.0,N
1513620216.0,286046994.0,N
1513620235.8,286046993.6,N
1513620255.7,286046995.4,N
1513620275.5,286046995.9,N
1513620295.3,286046997.1,N
1513620315.2,286046999.6,N
1513620335.0,286046999.2,N
1513620335.9,286046999.2,N
1513620355.8,286046999.7,N
1513620375.6,286046999.8,N
1513620395.4,286046998.1,N
1513620415.3,286047002.4,N
1513620435.1,286047004.4,N
1513620455.8,286047001.8,N
1513620475.7,286047001.8,N
1513620495.5,286047003.4,N
1513620515.4,286047004.8,N
1513620535.2,286047006.8,N
1513620555.0,286047008.9,N
1513620555.9,286047008.9,N
1513620575.8,286047007.3,N
1513620595.6,286047009.2,N
1513620615.5,286047009.0,N
1513620635.3,286047010.3,N
1513620655.1,286047008.5,N
1513620675.9,286047007.0,N
1513620695.7,286047009.1,N
1513620715.5,286047009.0,N
1513620735.4,286047010.7,N
1513620755.2,286047008.3,N
1513620775.1,286047004.8,N
1513620776.0,286047004.8,N
1513620795.8,286047003.7,N
1513620815.6,286047005.8,N
1513620835.5,286047004.6,N
1513620855.3,286047007.0,N
1513620875.1,286047004.6,N
1513620895.9,286047004.6,N
1513620915.7,286047005.7,N
1513620935.6,286047001.4,N
1513620955.4,286047002.2,N
1513620975.2,286047000.4,N
1513620995.1,286047000.6,N
1513620996.0,286047000.6,N
1513621015.8,286046998.7,N
1513621035.7,286046998.2,N
1513621055.5,286047001.7,N
1513621075.3,286047005.8,N
1513621095.2,286047005.5,N
1513621115.0,286047003.9,N
1513621115.9,286047003.9,N
1513621135.8,286047005.2,N
1513621155.6,286047006.0,N
1513621175.4,286047005.7,N
1513621195.3,286047003.3,N
1513621215.1,286047003.6,N
1513621235.8,286047002.5,N
1513621255.7,286047004.4,N
1513621275.5,286047004.0,N
1513621295.4,286047002.0,N
1513621315.2,286047001.5,N
1513621335.0,286047004.3,N
1513621335.9,286047004.3,N
1513621355.8,286047003.7,N
1513621375.6,286047002.5,N
1513621395.5,286046998.8,N
1513621415.3,286046999.8,N
1513621435.1,286047000.8,N
1513621455.9,286047000.5,N
1513621475.7,286046998.6,N
1513621495.6,286047011.9,Y
1513621515.4,286046995.5,P
1513621535.2,286046995.4,N
1513621555.1,286046996.2,N
1513621556.0,286046996.2,N
1513621575.8,286046994.9,N
1513621595.6,286046996.3,N
1513621615.5,286046995.6,N
1513621635.3,286046995.3,N
1513621655.2,286046995.2,N
1513621675.9,286046995.9,N
1513621695.7,286046997.7,N
1513621715.6,286046996.1,N
1513621735.4,286046995.7,N
1513621755.3,286046994.3,Y
1513621775.1,286046997.5,P
1513621776.0,286046997.5,P
1513621795.8,286046995.1,P
1513621815.7,286046999.0,N
1513621835.5,286047000.9,N
1513621855.3,286047000.5,N
1513621875.2,286047002.4,N
1513621895.0,286047004.1,N
1513621895.9,286047004.1,N
1513621915.8,286047003.5,N
1513621935.6,286047003.6,N
1513621955.4,286047004.2,N
1513621975.3,286047001.5,N
1513621995.1,286047001.5,N
1513622015.9,286047000.1,N
1513622035.7,286047000.9,N
1513622055.5,286046998.1,N
1513622075.4,286046999.4,N
1513622095.2,286046997.1,N
1513622115.0,286046999.1,N
1513622116.0,286046999.1,N
1513622135.8,286046998.2,N
1513622155.6,286046999.5,N
1513622175.5,286047000.8,N
1513622195.3,286047000.8,N
1513622215.1,286046998.3,N
1513622235.9,286046999.6,N
1513622255.7,286046999.0,N
1513622275.6,286046999.3,N
1513622295.4,286047000.3,N
1513622315.2,286047001.4,N
1513622335.1,286047003.6,N
1513622336.0,286047003.6,N
1513622355.8,286047005.1,N
1513622375.7,286047005.7,N
1513622395.5,286047003.0,N
1513622415.3,286047003.0,N
1513622435.2,286047007.0,N
1513622455.0,286047009.1,Y
1513622455.9,286047009.1,P
1513622475.8,286047006.0,N
1513622495.6,286047001.4,N
1513622515.4,286047000.4,N
1513622535.3,286047001.2,N
1513622555.1,286046996.6,N
1513622575.8,286047001.7,N
1513622595.7,286047010.8,Y
1513622615.5,286047009.1,P
1513622635.4,286047017.2,P
1513622655.2,286047016.0,N
1513622675.0,286047021.9,Y
1513622676.0,286047021.9,P
1513622695.8,286047013.0,N
1513622715.6,286047021.1,P
1513622735.5,286047022.9,Y
1513622755.3,286047009.4,P
1513622775.1,286047014.3,P
1513622795.9,286047011.3,P
1513622815.7,286047015.1,Y
1513622835.6,286047002.7,P
1513622855.4,286047002.4,N
1513622875.2,286047002.9,N
1513622895.1,286047006.2,N
1513622896.0,286047006.2,N
1513622915.8,286047011.8,Y
1513622935.7,286047010.5,P
1513622955.5,286047012.3,P
1513622975.3,286047009.8,P
1513622995.2,286047011.9,Y
1513623015.0,286047002.2,P
1513623015.9,286047002.2,N
1513623035.8,286047002.1,N
1513623055.6,286047005.3,N
1513623075.4,286047004.6,N
1513623095.3,286047008.3,Y
1513623115.1,286047003.6,P
1513623135.9,286047005.5,P
1513623155.7,286047004.5,P
1513623175.5,286047006.9,Y
1513623195.4,286047001.1,P
1513623215.2,286046994.9,P
1513623235.1,286046998.5,N
1513623236.0,286046998.5,N
1513623255.8,286047000.4,N
1513623275.6,286046999.7,N
1513623295.5,286047004.1,N
1513623315.3,286047005.0,N
1513623335.1,286047005.3,N
1513623355.9,286047004.5,N
1513623375.7,286047008.1,N
1513623395.6,286047009.8,N
1513623415.4,286047012.6,Y
1513623435.2,286047011.2,P
1513623455.1,286047010.3,N
1513623456.0,286047010.3,N
1513623475.8,286047013.7,Y
1513623495.7,286047003.1,P
1513623515.5,286047001.8,N
1513623535.3,286047003.3,N
1513623555.2,286047005.4,N
1513623575.0,286047007.5,Y
1513623575.9,286047007.5,P
1513623595.8,286046999.9,N
